Lid_Strength_Index
7 7 8 7 7 8 9 8 11 8 6 11 11 14 13 11 10 7 8 9 10 11 10 13 13 13 11 8 7 11 9 11 14 13 10 10 11 12 12 17 17 14 16 15
7 7 8 7 8 9 8 10 10 8 8 13 13 12 13 12 11 9 9 10 8 8 11 13 12 12 10 8 8 10 9 11 15 15 13 11 12 10 10 11 12 16 18 14
7 8 8 8 8 9 9 11 13 11 9 11 13 14 15 15 12 10 8 9 8 9 11 9 12 12 11 9 8 8 8 11 13 16 14 12 13 11 11 11 16 15 13 12
7 8 8 8 9 9 10 11 13 12 13 13 14 13 15 16 15 11 8 10 9 10 13 11 12 12 12 10 9 9 9 14 13 13 12 12 12 12 12 13 12 15 12 11
7 8 8 9 9 9 10 12 13 13 13 14 14 15 16 16 16 13 11 11 9 9 12 11 13 11 12 12 10 11 9 13 12 13 12 12 13 11 11 11 12 12 12 11
7 8 9 9 9 9 10 11 11 11 15 15 15 15 16 16 15 13 11 10 10 10 9 8 8 8 9 10 11 11 12 12 14 17 13 12 15 12 11 11 11 11 13 10
8 8 9 9 9 10 10 10 11 13 16 14 15 16 16 16 15 16 12 9 9 8 6 6 6 7 8 9 10 9 12 12 12 16 14 20 12 9 9 11 11 10 10 9
8 8 8 9 9 10 10 11 11 12 15 14 15 16 15 14 14 15 13 10 8 7 7 10 11 11 11 10 9 10 9 11 14 16 15 13 12 10 10 11 11 9 10 9
8 8 8 9 9 9 10 10 10 11 14 15 14 15 15 14 14 14 13 9 7 7 8 10 14 15 13 13 11 8 9 9 12 13 16 17 12 9 8 8 14 8 7 8
8 8 8 8 9 9 9 11 10 11 14 13 14 14 15 13 13 14 13 12 9 6 9 12 13 13 10 14 14 13 12 11 14 14 15 13 9 8 7 15 13 7 7 7
7 8 8 9 9 9 9 11 9 10 13 13 13 13 14 13 13 14 13 12 10 9 11 11 12 12 11 12 10 12 13 13 13 12 14 17 8 8 12 9 6 6 6 6
7 8 8 8 9 9 9 11 9 9 11 13 11 11 10 11 11 12 12 13 12 10 10 9 9 12 11 11 15 9 13 11 12 11 12 8 7 7 7 6 6 6 6 5
7 7 7 8 8 9 9 10 10 10 12 13 12 13 11 9 10 9 12 11 11 10 8 10 10 12 9 13 12 10 9 8 10 10 9 8 7 6 6 6 6 6 6 5
7 7 7 8 8 9 9 10 9 10 11 13 14 10 11 9 9 10 9 10 9 9 8 10 11 11 7 10 10 11 9 8 9 9 8 8 6 6 6 6 6 6 6 6
7 7 7 8 8 9 9 10 10 10 12 14 14 11 10 10 10 10 10 10 10 11 10 10 11 8 8 8 9 10 7 9 10 11 7 8 7 6 6 6 7 6 6 6
7 7 7 8 8 9 11 13 10 9 10 12 15 11 12 11 9 10 10 10 11 11 12 10 8 7 8 10 11 7 7 7 7 8 7 6 6 5 6 6 6 6 6 6
7 7 8 8 9 10 13 14 11 10 9 12 15 14 12 11 9 10 10 10 11 11 12 12 10 8 7 9 11 7 6 6 6 6 6 7 6 6 6 6 6 7 7 7
7 8 8 9 9 10 12 10 10 10 12 12 14 14 13 11 11 12 10 11 10 10 11 10 11 8 8 10 7 7 6 6 6 6 6 7 7 7 7 7 7 7 8 8
7 8 9 10 11 13 12 9 10 10 12 14 14 14 15 11 12 10 10 10 13 10 12 11 9 10 11 10 9 8 8 8 8 7 6 6 7 7 8 8 8 8 9 9
8 10 12 15 13 10 10 12 13 13 13 12 14 14 14 12 12 12 12 11 12 13 11 8 10 10 9 9 9 8 8 8 8 8 8 7 7 7 8 9 8 9 10 10
11 14 15 13 10 12 14 16 16 15 16 14 14 13 14 11 14 13 11 13 11 13 11 11 11 11 11 9 8 8 8 8 9 9 8 8 9 9 8 9 9 9 10 10
11 12 11 12 14 16 16 18 17 17 17 15 14 14 13 12 11 13 12 14 13 15 9 11 13 12 10 9 9 9 9 8 9 9 10 9 9 9 9 10 10 10 10 10
11 13 15 15 17 18 18 20 19 19 16 15 14 15 13 12 11 13 12 14 14 10 12 12 12 10 10 9 8 8 9 8 9 9 9 9 10 10 11 11 11 11 11 11
13 15 19 16 19 17 17 16 16 16 14 15 14 15 14 13 14 13 16 12 12 14 14 13 10 10 10 10 9 9 9 9 9 10 10 10 10 11 12 12 12 12 13 13
15 14 17 18 18 17 17 16 16 15 14 14 15 15 14 15 16 14 14 16 16 13 13 11 9 10 10 11 10 9 10 9 10 10 11 11 11 12 12 13 13 13 13 14
15 17 19 17 17 18 17 15 16 15 14 14 14 16 17 17 16 17 17 16 15 12 10 9 9 10 10 11 11 10 9 9 9 10 10 11 12 12 12 13 14 14 14 15
16 18 16 16 15 16 16 14 15 13 14 16 16 18 18 16 17 17 14 14 11 10 10 9 9 10 11 11 11 11 9 9 9 10 11 12 13 13 14 15 14 14 14 15